Weather History for Mackinac Island, MI

Change the Weather History Date:

Monday, March 10, 2014

  Actual Average Record
Temperature  
Mean Temperature 34 °F -  
Max Temperature 40 °F 27 °F 49 °F (1977)
Min Temperature 27 °F 14 °F -5 °F (1987)
Degree Days  
Heating Degree Days 32    
Moisture  
Dew Point 30 °F    
Average Humidity 88    
Maximum Humidity 99    
Minimum Humidity 72    
Precipitation  
Precipitation 0.00 in - - ()
Sea Level Pressure  
Sea Level Pressure 29.52 in    
Wind  
Wind Speed 8 mph (SW)    
Max Wind Speed 16 mph    
Max Gust Speed 30 mph    
Visibility 8 miles    
Events      
Averages and records for this station are not official NWS values.
T = Trace of Precipitation, MM = Missing Value Source: NWS Daily Summary

Daily Weather History Graph

Daily Weather History Graph

Search for Another Location

Airport:

Trip Planner

Search our weather history database for the weather conditions in past years. The results will help you decide how hot, cold, wet, or windy it might be!

Date:

Astronomy

Mar. 10, 2014 Rise Set
Actual Time 8:00 AM EDT 7:37 PM EDT
Civil Twilight 7:30 AM EDT 8:07 PM EDT
Nautical Twilight 6:56 AM EDT 8:41 PM EDT
Astronomical Twilight 6:21 AM EDT 9:17 PM EDT
Moon 2:08 PM EDT (3/10) 4:24 AM EDT (3/10)
Length of Visible Light 12h 36m
Length of Day
11h 37m
Waxing Gibbous, 70% of the Moon is Illuminated
Mar 10
Waxing Gibbous
Mar 16
Full
Mar 23
Last Quarter
Mar 30
New
Apr 7
First Quarter

Hourly Weather History & Observations

Time (EDT) Temp. Windchill Dew Point Humidity Pressure Visibility Wind Dir Wind Speed Gust Speed Precip Events Conditions
12:18 AM 30.9 °F 22.2 °F 28.0 °F 89% 29.63 in 10.0 mi West 10.4 mph 17.3 mph N/A   Scattered Clouds
12:38 AM 30.9 °F 20.7 °F 28.2 °F 90% 29.63 in 10.0 mi West 13.8 mph - N/A   Clear
12:58 AM 30.9 °F 21.7 °F 28.4 °F 90% 29.63 in 10.0 mi West 11.5 mph 20.7 mph N/A   Clear
1:19 AM 31.1 °F 23.7 °F 28.8 °F 91% 29.63 in 10.0 mi WSW 8.1 mph 16.1 mph N/A   Mostly Cloudy
1:38 AM 31.3 °F 23.3 °F 28.8 °F 90% 29.63 in 10.0 mi West 9.2 mph 16.1 mph N/A   Overcast
1:58 AM 31.1 °F 24.5 °F 28.9 °F 92% 29.63 in 10.0 mi West 6.9 mph - N/A   Mostly Cloudy
2:19 AM 30.7 °F 22.6 °F 28.8 °F 92% 29.63 in 7.0 mi West 9.2 mph - N/A   Scattered Clouds
2:38 AM 30.2 °F 22.6 °F 28.4 °F 93% 29.62 in 7.0 mi West 8.1 mph - N/A   Clear
2:58 AM 29.8 °F 23.0 °F 28.4 °F 94% 29.62 in 7.0 mi West 6.9 mph - N/A   Clear
3:19 AM 28.6 °F 21.5 °F 27.7 °F 96% 29.62 in 5.0 mi WSW 6.9 mph - N/A   Clear
3:38 AM 28.8 °F 22.6 °F 28.2 °F 98% 29.62 in 5.0 mi WSW 5.8 mph - N/A   Clear
3:58 AM 30.2 °F 23.4 °F 29.3 °F 96% 29.62 in 7.0 mi WSW 6.9 mph - N/A   Clear
4:19 AM 30.6 °F 23.1 °F 29.5 °F 96% 29.61 in 7.0 mi WSW 8.1 mph - N/A   Clear
4:38 AM 30.2 °F 23.4 °F 29.3 °F 96% 29.60 in 7.0 mi WSW 6.9 mph - N/A   Clear
4:58 AM 30.6 °F 23.8 °F 29.5 °F 96% 29.60 in 7.0 mi WSW 6.9 mph - N/A   Clear
5:19 AM 30.0 °F 25.2 °F 29.3 °F 97% 29.59 in 5.0 mi SW 4.6 mph - N/A   Clear
5:38 AM 30.0 °F 24.1 °F 29.3 °F 97% 29.59 in 7.0 mi SW 5.8 mph - N/A   Clear
5:59 AM 30.0 °F 26.5 °F 29.1 °F 96% 29.59 in 5.0 mi SW 3.5 mph - N/A   Scattered Clouds
6:18 AM 29.5 °F 22.5 °F 29.1 °F 99% 29.56 in 5.0 mi South 6.9 mph - N/A   Scattered Clouds
6:38 AM 28.8 °F 23.7 °F 28.4 °F 99% 29.57 in 4.0 mi South 4.6 mph - N/A   Mostly Cloudy
6:59 AM 28.8 °F 23.7 °F 28.6 °F 99% 29.58 in 5.0 mi SSE 4.6 mph - N/A   Overcast
7:18 AM 28.9 °F 23.9 °F 28.4 °F 98% 29.58 in 5.0 mi SE 4.6 mph - N/A   Mostly Cloudy
7:38 AM 27.5 °F 21.1 °F 27.3 °F 99% 29.58 in 4.0 mi South 5.8 mph - N/A   Scattered Clouds
7:59 AM 29.7 °F 24.7 °F 29.1 °F 98% 29.59 in 7.0 mi South 4.6 mph - N/A   Mostly Cloudy
8:18 AM 30.4 °F 24.5 °F 29.7 °F 97% 29.58 in 5.0 mi South 5.8 mph - N/A   Overcast
8:38 AM 30.6 °F 24.7 °F 29.3 °F 95% 29.56 in 5.0 mi SSE 5.8 mph - N/A   Overcast
8:59 AM 31.1 °F 23.7 °F 29.5 °F 94% 29.56 in 7.0 mi SSE 8.1 mph - N/A   Overcast
9:18 AM 31.5 °F 24.9 °F 29.3 °F 92% 29.56 in 7.0 mi South 6.9 mph - N/A   Overcast
9:38 AM 31.8 °F - 29.1 °F 90% 29.55 in 10.0 mi Calm Calm - N/A   Overcast
9:59 AM 32.4 °F 26.0 °F 28.8 °F 87% 29.55 in 10.0 mi South 6.9 mph - N/A   Mostly Cloudy
10:18 AM 33.3 °F 30.2 °F 29.1 °F 85% 29.54 in 10.0 mi South 3.5 mph - N/A   Scattered Clouds
10:39 AM 34.2 °F 31.2 °F 29.3 °F 82% 29.53 in 10.0 mi South 3.5 mph - N/A   Clear
10:59 AM 34.7 °F 28.8 °F 29.7 °F 82% 29.52 in 10.0 mi SSW 6.9 mph - N/A   Clear
11:18 AM 35.6 °F 31.7 °F 29.8 °F 80% 29.52 in 10.0 mi SW 4.6 mph - N/A   Clear
11:39 AM 36.0 °F - 30.2 °F 80% 29.51 in 10.0 mi Calm Calm - N/A   Clear
11:59 AM 36.5 °F - 30.0 °F 77% 29.50 in 10.0 mi Calm Calm - N/A   Clear
12:18 PM 36.5 °F 33.9 °F 30.0 °F 77% 29.49 in 10.0 mi West 3.5 mph - N/A   Clear
12:39 PM 37.4 °F 34.9 °F 30.2 °F 75% 29.47 in 10.0 mi South 3.5 mph - N/A   Scattered Clouds
12:58 PM 37.6 °F 32.3 °F 30.2 °F 75% 29.47 in 10.0 mi WSW 6.9 mph - N/A   Mostly Cloudy
1:18 PM 36.7 °F 32.0 °F 30.6 °F 78% 29.46 in 10.0 mi WSW 5.8 mph - N/A   Overcast
1:39 PM 37.4 °F 31.4 °F 31.1 °F 78% 29.44 in 10.0 mi West 8.1 mph - N/A   Overcast
1:58 PM 37.4 °F 32.8 °F 31.1 °F 78% 29.44 in 10.0 mi West 5.8 mph - N/A   Overcast
2:18 PM 39.2 °F 33.6 °F 31.5 °F 74% 29.42 in 10.0 mi WSW 8.1 mph - N/A   Overcast
2:39 PM 37.6 °F 30.5 °F 31.8 °F 80% 29.40 in 10.0 mi WSW 10.4 mph 17.3 mph N/A   Overcast
2:58 PM 40.3 °F 32.6 °F 32.0 °F 72% 29.40 in 10.0 mi WSW 13.8 mph 19.6 mph N/A   Mostly Cloudy
3:19 PM 38.1 °F 29.8 °F 32.0 °F 79% 29.39 in 10.0 mi WSW 13.8 mph 29.9 mph N/A   Mostly Cloudy
3:39 PM 37.0 °F 29.3 °F 32.0 °F 82% 29.39 in 7.0 mi WSW 11.5 mph 28.8 mph N/A   Clear
3:58 PM 36.5 °F 29.2 °F 32.0 °F 84% 29.40 in 7.0 mi WSW 10.4 mph 24.2 mph N/A   Scattered Clouds
4:19 PM 36.5 °F 27.0 °F 32.0 °F 84% 29.40 in 10.0 mi WSW 16.1 mph 23.0 mph N/A   Scattered Clouds
4:39 PM 37.2 °F 29.1 °F 32.0 °F 81% 29.40 in 10.0 mi WSW 12.7 mph 23.0 mph N/A   Clear
4:58 PM 36.9 °F 30.7 °F 32.0 °F 83% 29.40 in 10.0 mi WSW 8.1 mph 19.6 mph N/A   Clear
5:19 PM 37.0 °F 29.3 °F 32.2 °F 83% 29.41 in 10.0 mi WSW 11.5 mph 20.7 mph N/A   Clear
5:38 PM 38.3 °F 30.5 °F 32.4 °F 79% 29.42 in 10.0 mi WSW 12.7 mph 23.0 mph N/A   Clear
5:58 PM 37.9 °F 30.5 °F 32.2 °F 80% 29.42 in 10.0 mi WSW 11.5 mph 21.9 mph N/A   Clear
6:19 PM 37.8 °F 30.2 °F 32.2 °F 80% 29.43 in 10.0 mi WSW 11.5 mph 18.4 mph N/A   Clear
6:38 PM 37.4 °F 30.3 °F 32.0 °F 81% 29.44 in 10.0 mi West 10.4 mph 20.7 mph N/A   Clear
6:59 PM 36.5 °F 31.0 °F 32.0 °F 84% 29.44 in 10.0 mi WSW 6.9 mph - N/A   Clear
7:19 PM 35.4 °F 30.5 °F 32.0 °F 87% 29.46 in 7.0 mi WSW 5.8 mph - N/A   Clear
7:38 PM 34.7 °F 28.8 °F 32.0 °F 90% 29.47 in 7.0 mi WSW 6.9 mph - N/A   Clear
7:59 PM 34.2 °F 29.0 °F 32.0 °F 92% 29.47 in 7.0 mi WSW 5.8 mph - N/A   Clear
8:19 PM 33.8 °F 29.6 °F 32.0 °F 93% 29.47 in 7.0 mi WSW 4.6 mph - N/A   Clear
8:38 PM 33.4 °F 27.3 °F 32.0 °F 94% 29.49 in 7.0 mi WSW 6.9 mph - N/A   Clear
8:59 PM 33.1 °F 26.1 °F 31.8 °F 95% 29.50 in 7.0 mi WSW 8.1 mph - N/A   Clear
9:19 PM 32.9 °F 25.9 °F 31.1 °F 93% 29.51 in 7.0 mi WSW 8.1 mph - N/A   Clear
9:38 PM 33.1 °F 26.1 °F 31.1 °F 92% 29.52 in 7.0 mi WSW 8.1 mph - N/A   Clear
9:59 PM 33.4 °F 27.3 °F 30.7 °F 90% 29.53 in 10.0 mi WSW 6.9 mph - N/A   Clear
10:19 PM 33.8 °F 27.0 °F 30.7 °F 89% 29.52 in 10.0 mi West 8.1 mph - N/A   Clear
10:39 PM 32.9 °F 25.3 °F 30.2 °F 90% 29.52 in 10.0 mi West 9.2 mph - N/A   Clear
10:59 PM 32.7 °F 25.0 °F 30.0 °F 90% 29.52 in 10.0 mi WSW 9.2 mph - N/A   Clear
11:19 PM 33.4 °F 25.9 °F 30.2 °F 88% 29.52 in 10.0 mi West 9.2 mph - N/A   Clear
11:39 PM 34.9 °F 29.0 °F 30.7 °F 85% 29.52 in 10.0 mi West 6.9 mph - N/A   Clear
11:58 PM 34.3 °F 27.7 °F 30.2 °F 85% 29.52 in 10.0 mi West 8.1 mph - N/A   Clear